Regional Weather Roundup
Issued by NWS

Home | Current Version | Previous Version | Text Only | Print | Product List | Glossary Off
Versions: 1 2 3 4 5 6 7 8 9 10 11 12 13 14 15 16 17 18 19 20 21 22 23 24 25 26 27

000
ASUS45 KCYS 211210
RWRWY

WYOMING REGIONAL WEATHER ROUNDUP
NATIONAL WEATHER SERVICE CHEYENNE WY
600 AM MDT SAT OCT 21 2017

NOTE:  "FAIR" INDICATES FEW OR NO CLOUDS BELOW 12,000 FEET
WITH NO SIGNIFICANT WEATHER AND/OR OBSTRUCTIONS TO VISIBILITY.

WYZ001-211300-
YELLOWSTONE NATIONAL PARK

CITY           SKY/WX    TMP DP  RH WIND       PRES   REMARKS
LK YELLOWSTONE   N/A     23  18  81 VRB6      29.97R WCI  16
6HR MIN TEMP:  18; 6HR MAX TEMP:  25;

W YELLOWSTONE  NOT AVBL

$$
WYZ002>013-054>058-071-098>099-211300-
NORTHERN WYOMING

CITY           SKY/WX    TMP DP  RH WIND       PRES   REMARKS
JACKSON        CLOUDY    28  23  81 SW13      30.00R WCI  17
CODY           FAIR      39  15  37 W16G24    29.86R WCI  30
GREYBULL       FAIR      30  21  69 N3        29.85R
6HR MIN TEMP:  29; 6HR MAX TEMP:  43;

WORLAND        FAIR      27  22  81 S6        29.86R WCI  20
6HR MIN TEMP:  24; 6HR MAX TEMP:  44;

SHERIDAN       FAIR      40  18  41 NW13      29.79R WCI  32
6HR MIN TEMP:  36; 6HR MAX TEMP:  47;

BUFFALO        FAIR      37  14  38 NW3       29.80R
6HR MIN TEMP:  36; 6HR MAX TEMP:  44;

GILLETTE       FAIR      41  19  41 NW14      29.78R
6HR MIN TEMP:  41; 6HR MAX TEMP:  45;

HULETT         CLOUDY    41  27  56 W8        29.76R
NEWCASTLE      FAIR      41  25  52 NW14      29.76R

$$
WYZ014>020-022>026-101>103-211300-
CENTRAL WYOMING

CITY           SKY/WX    TMP DP  RH WIND       PRES   REMARKS
BIG PINEY      FAIR      23  19  85 NW6       30.02R WCI  16
6HR MIN TEMP:  18; 6HR MAX TEMP:  29;

PINEDALE       FAIR      21  19  93 W6        30.01R WCI  14
DUBOIS         PTSUNNY   25  18  74 NW7       29.94R WCI  17
LANDER         FAIR      25  18  74 VRB3      29.88R
6HR MIN TEMP:  25; 6HR MAX TEMP:  39;

RIVERTON       FAIR      35  15  44 W22G28    29.89R WCI  23
6HR MIN TEMP:  35; 6HR MAX TEMP:  39;

CASPER         FAIR      30  18  60 MISG      29.86R
6HR MIN TEMP:  29; 6HR MAX TEMP:  43;

DOUGLAS        FAIR      40  18  41 W18       29.82R WCI  31
6HR MIN TEMP:  40; 6HR MAX TEMP:  48;


$$
WYZ021-027>030-104>119-211300-
SOUTHERN WYOMING

CITY           SKY/WX    TMP DP  RH WIND       PRES   REMARKS
EVANSTON       MOCLDY    25  19  78 SW9       30.07R WCI  15
6HR MIN TEMP:  24; 6HR MAX TEMP:  28;

FORT BRIDGER   FAIR      25  20  82 W12       30.09R WCI  15
ROCK SPRINGS   FAIR      26  17  68 SW20      30.02R WCI  12
6HR MIN TEMP:  26; 6HR MAX TEMP:  31;

DIXON          FAIR      19  17  88 N6        30.05R WCI  11
RAWLINS        FAIR      27  18  69 W21G31    29.92S WCI  13
6HR MIN TEMP:  26; 6HR MAX TEMP:  34;

SARATOGA       FAIR      27  21  80 W21G28    29.95R WCI  13
LARAMIE        FAIR      29  17  61 W26G32    29.88R WCI  14
6HR MIN TEMP:  28; 6HR MAX TEMP:  36; 6HR PCP: TRACE;

CHEYENNE       FAIR      37  14  38 NW21G38   29.86R WCI  26
6HR MIN TEMP:  37; 6HR MAX TEMP:  43;

TORRINGTON     FAIR      46  20  35 NW18G28   29.76R
6HR MIN TEMP:  46; 6HR MAX TEMP:  52; 6HR PCP: TRACE;

PINE BLUFFS    CLOUDY    41  18  38 MISG      29.80R

$$




USA.gov is the U.S. government's official web portal to all federal, state and local government web resources and services.